Zurück zum Katalog

DELTA 1 DEB

AktivLEO
NORAD 14905·DEBRIS·🇺🇸 United States

Gestartet Jul 29, 1976 von Vandenberg Space Force Base

Loading…

Nächste Überflüge (nächste 24 Stunden)

TLE

AktuellSource: Space-Track

Epoche: Sep 14, 2026, 03:18 UTC

1 14905U 76077ET  26257.13812976  .00000176  00000-0  23504-2 0  9995
2 14905 102.2481 308.2934 0184165 215.9383 165.4058 12.07388944929098

Verfolge DELTA 1 DEB in Echtzeit mit AllMySat

Download on the App Store